Wind_Speed
41 40 39 38 38 37 37 36 35 35 34 34 33 32 31 29 28 29 29 29 28 27 26 26 25 25 26 26 24 22 20 20 21 22 24 27 29 30 30 30 29 27 25 23 22 22 21 20 20 19 18 18 17 16 16 16 15 15 15 15 15 14 14 13 13 12 12 12 12 12 12 12 12 12 12 12 11 10 10 10 9 9 9 9 9 9
40 39 38 37 37 37 36 36 35 34 34 34 33 31 30 29 29 29 29 28 28 27 25 25 24 26 28 27 25 22 21 21 22 24 27 29 31 31 31 30 28 26 24 22 21 21 20 20 19 19 18 17 17 16 16 15 15 15 15 15 15 15 14 13 13 13 12 12 12 12 12 12 12 12 12 12 11 11 10 10 10 10 10 9 10 10
39 38 37 37 36 36 36 35 35 34 34 33 32 30 29 29 30 29 29 28 27 26 25 24 25 27 28 27 25 23 23 23 25 27 29 31 32 32 31 29 27 25 23 21 21 20 20 19 19 18 18 17 16 16 15 15 15 15 15 15 15 15 14 14 13 13 12 12 12 12 12 12 12 12 12 12 11 11 11 11 11 11 11 11 11 11
38 38 37 36 36 35 35 35 34 34 33 32 31 30 30 30 29 29 28 27 26 25 24 24 26 28 28 26 25 24 24 25 27 29 31 32 33 32 31 28 26 24 22 21 20 20 19 19 18 18 17 17 16 16 15 15 15 15 15 15 15 15 14 14 13 13 13 12 12 12 12 12 12 12 12 12 12 12 12 12 12 11 11 12 12 12
38 37 37 36 36 35 35 34 34 33 32 31 30 30 30 29 29 28 28 27 25 24 24 26 28 29 28 26 25 25 25 26 28 30 32 33 33 32 29 27 24 22 21 20 20 19 19 18 17 17 17 16 16 15 15 15 15 15 15 15 15 15 14 14 13 13 13 13 13 13 13 13 13 13 13 12 12 12 12 12 12 12 12 12 13 13
38 37 37 36 36 35 34 33 33 32 31 30 30 30 29 29 28 28 27 26 25 25 26 28 29 28 26 25 25 25 26 28 30 32 33 34 33 31 27 25 22 21 20 20 19 19 18 17 17 16 16 16 15 15 15 15 15 16 16 15 15 15 14 14 14 13 13 13 13 13 13 13 13 13 13 13 13 13 13 13 13 13 13 13 13 13
38 37 36 36 35 34 34 33 32 31 30 30 29 29 29 28 28 27 26 25 25 26 29 30 29 26 25 24 25 25 26 29 31 33 34 34 32 28 25 23 21 20 19 19 19 18 18 17 16 16 16 16 15 15 15 15 16 16 16 16 15 15 14 14 14 14 14 14 14 14 13 13 13 13 13 13 13 13 13 13 13 13 13 13 13 13
38 37 36 35 34 34 33 32 31 30 30 29 28 28 28 28 27 26 25 25 26 28 30 29 27 25 23 23 24 25 27 30 32 34 34 33 30 26 23 21 20 19 19 19 19 18 17 17 16 16 16 16 15 15 15 16 16 16 16 15 15 15 14 14 14 14 14 14 14 14 14 14 13 13 13 13 13 13 13 13 13 13 13 13 14 14
37 36 35 34 33 32 32 31 30 29 29 28 28 27 27 26 26 25 25 26 28 30 30 28 26 24 23 23 24 26 28 31 34 35 35 32 28 24 21 20 19 19 19 19 18 18 17 17 17 16 16 16 16 16 16 16 16 16 16 15 15 15 15 14 14 14 14 14 14 14 14 14 14 13 13 13 13 13 13 13 13 14 14 14 14 14
36 36 35 33 32 31 30 29 29 28 28 27 27 27 26 25 25 25 27 29 29 30 29 27 25 24 24 24 25 27 29 32 34 35 34 30 25 22 20 19 18 18 18 18 18 17 17 17 17 17 17 17 16 16 16 16 16 16 15 15 15 15 15 15 14 15 15 15 14 14 14 14 14 14 13 13 13 13 14 14 14 14 14 14 14 14
35 34 33 32 31 30 29 28 27 27 27 26 26 26 26 25 25 26 28 30 30 29 28 26 25 24 24 25 26 28 30 32 34 34 32 27 23 20 19 18 18 18 18 18 18 17 17 17 17 17 17 17 16 16 16 15 16 15 15 15 15 15 15 15 15 15 15 15 15 15 14 14 14 14 14 14 14 14 14 14 14 14 14 14 14 14
33 32 31 30 29 28 27 26 26 26 25 25 25 24 24 25 26 28 29 29 28 27 26 25 25 25 25 26 27 29 31 33 34 33 29 24 20 19 18 18 18 18 18 18 18 17 18 18 17 17 17 17 16 16 15 15 15 15 15 15 15 15 15 15 15 15 15 15 15 15 14 14 14 14 14 14 14 14 14 14 14 14 14 14 14 14
31 30 29 29 28 26 25 25 24 24 23 23 22 23 24 26 27 28 28 28 27 26 25 24 24 25 25 26 28 30 32 33 32 29 25 21 19 18 18 18 18 18 18 17 17 17 17 17 17 17 16 16 15 15 15 15 15 15 15 15 15 15 15 15 15 15 15 15 15 15 15 14 14 14 14 14 14 14 14 14 14 14 14 14 14 14
29 28 28 27 26 25 24 23 22 21 21 21 21 23 26 27 27 27 27 26 26 25 24 24 24 26 27 28 29 31 32 31 29 25 21 19 18 18 17 18 18 17 17 17 17 17 17 17 17 16 16 15 15 15 14 15 15 15 15 15 15 15 15 15 15 15 15 15 15 15 15 15 14 14 14 14 14 14 14 14 14 14 14 14 14 14
27 27 26 25 24 23 22 21 20 20 20 21 23 25 27 27 27 27 26 25 24 24 23 24 25 27 28 30 31 32 31 28 25 22 20 19 18 18 18 18 18 17 17 17 17 17 17 16 16 15 15 15 14 14 14 14 15 15 15 15 15 15 15 16 16 16 16 15 15 15 15 15 15 15 15 15 15 15 14 14 14 14 14 14 14 14
26 25 25 24 22 21 21 20 19 20 22 24 26 27 28 27 27 26 25 24 23 24 24 26 28 30 30 31 31 30 27 25 23 21 20 19 19 18 18 18 17 17 17 17 17 16 16 16 15 15 14 14 14 14 14 15 15 15 15 15 15 16 16 16 16 16 16 16 15 15 15 15 15 15 15 15 15 15 15 15 14 14 14 14 14 14
25 25 24 22 21 20 20 19 20 23 25 26 27 27 26 26 25 24 24 24 24 25 27 29 31 32 30 29 28 26 24 23 22 21 20 20 19 18 18 18 17 17 17 17 16 16 15 15 15 14 14 14 14 14 14 15 15 15 15 16 16 16 16 16 16 16 16 16 16 16 16 16 16 15 15 15 15 15 15 15 15 15 14 14 14 15
25 24 22 21 20 19 19 21 22 24 25 25 25 25 25 25 25 24 24 25 27 29 30 32 31 30 28 26 25 24 23 22 21 21 20 19 19 18 18 17 17 17 17 17 16 15 15 14 14 14 14 15 15 15 15 15 15 15 16 16 16 16 16 16 16 16 16 16 16 16 16 16 16 16 16 16 16 15 15 15 15 15 15 15 15 15
24 23 21 20 20 20 20 22 23 24 24 24 25 25 25 26 26 26 27 28 30 32 32 31 29 27 25 23 23 23 22 22 21 20 20 19 19 18 18 17 17 17 17 16 16 15 14 14 14 14 15 15 15 15 15 15 15 16 16 16 16 16 16 17 17 17 17 16 16 16 16 16 16 16 16 16 16 16 15 15 15 15 15 15 15 15
24 22 21 21 21 22 23 24 24 24 25 26 26 27 27 28 28 29 30 32 33 33 32 29 26 24 23 22 22 22 22 21 20 20 19 19 19 18 18 17 17 17 17 16 15 15 14 14 14 15 15 15 15 15 16 16 16 16 16 16 17 17 17 17 17 17 17 17 17 17 17 17 16 16 16 16 16 16 16 15 15 15 15 15 15 15
23 23 22 23 24 25 26 27 28 28 28 28 28 28 29 30 31 33 34 35 34 33 30 27 24 23 22 21 22 22 22 21 20 19 19 19 18 18 17 17 17 17 16 16 15 15 14 14 15 15 15 15 16 16 16 16 16 16 16 17 17 17 17 17 17 17 17 17 17 17 17 17 17 17 16 16 16 16 16 16 15 15 15 15 15 15
23 24 25 26 27 28 29 30 30 29 29 29 28 29 31 32 34 35 35 34 32 29 27 24 23 22 21 21 21 22 21 20 20 19 19 19 18 18 18 17 17 16 16 16 16 15 15 15 15 16 16 16 16 16 16 17 17 17 17 17 17 17 17 17 17 17 17 17 17 17 17 17 17 17 17 16 16 16 16 16 16 15 15 15 15 15
24 25 27 28 28 29 29 29 28 28 28 29 29 31 32 34 34 34 33 32 29 27 25 23 21 21 21 21 21 21 20 20 20 19 19 18 18 18 18 17 17 17 16 16 16 16 16 16 16 16 17 17 17 17 17 17 17 17 17 17 17 17 17 17 17 17 17 17 17 17 17 17 17 17 17 16 16 16 16 16 16 16 15 16 16 16
25 26 27 27 27 27 27 27 27 27 28 29 31 32 32 32 32 31 30 29 27 25 23 21 20 20 20 20 20 20 20 20 20 19 19 18 18 18 17 17 17 17 17 17 17 16 16 16 17 17 17 17 17 17 17 17 17 17 18 18 18 18 18 18 18 18 17 18 18 17 17 17 17 17 17 17 16 16 16 16 16 16 16 16 16 16
26 26 26 26 26 26 26 26 27 28 29 30 31 31 31 30 29 28 27 26 24 22 20 19 19 20 20 20 20 20 20 20 19 19 19 18 18 18 18 18 17 17 17 17 17 17 17 17 18 18 18 18 18 18 18 18 18 18 18 18 18 18 18 18 18 18 18 18 18 18 18 17 17 17 17 17 17 16 16 16 16 16 16 16 16 16
27 27 26 25 25 25 26 27 28 29 29 30 29 29 28 27 27 26 25 23 21 20 19 19 19 19 19 19 19 20 20 20 19 19 19 19 18 18 18 18 18 18 17 17 18 18 18 18 18 18 18 18 18 18 18 18 18 18 18 18 18 18 18 18 18 18 18 18 18 18 18 18 17 17 17 17 17 16 16 16 16 16 16 16 16 16
28 27 26 26 26 27 28 29 29 30 30 29 29 28 27 26 25 24 22 21 20 19 19 19 19 19 19 19 20 20 20 19 19 19 19 19 18 18 18 19 18 18 18 18 18 18 18 18 18 19 18 18 18 18 18 18 18 18 18 18 18 18 18 18 18 18 18 18 18 18 18 18 18 17 17 17 17 17 16 16 16 16 16 17 17 17
28 28 27 27 27 28 29 30 30 30 30 29 28 28 27 25 24 22 21 21 20 19 19 19 19 19 19 20 20 20 19 19 19 19 19 19 19 18 19 19 19 18 18 18 18 18 19 19 19 19 19 19 18 18 18 18 18 18 18 18 18 18 18 18 18 18 18 18 18 18 18 18 18 18 17 17 17 17 17 17 17 17 17 17 17 17
28 27 27 27 28 28 29 29 29 29 28 28 27 26 25 24 23 22 21 21 20 20 19 19 19 20 20 20 20 20 19 19 19 20 19 19 19 19 19 19 19 18 18 18 18 19 19 19 19 19 19 19 19 18 18 18 18 18 18 19 19 19 19 18 18 18 18 18 18 18 18 18 18 18 18 18 17 17 17 17 17 17 17 17 18 18
27 26 26 27 27 27 27 27 27 27 26 26 25 25 24 23 22 22 22 21 20 20 20 20 20 20 20 20 20 19 19 20 20 20 20 19 19 19 20 19 19 19 19 19 19 19 19 19 19 19 19 19 19 19 19 19 19 19 19 19 19 19 19 19 19 19 19 19 19 19 19 19 18 18 18 18 18 18 18 18 18 18 18 18 18 18
25 25 25 25 25 25 25 25 25 25 25 25 24 24 23 23 22 22 22 21 20 20 20 20 20 20 20 20 20 19 19 20 20 20 19 19 19 19 19 19 19 19 19 19 19 19 19 20 19 19 19 19 19 19 19 19 19 19 19 19 19 19 19 19 19 19 19 19 19 19 19 19 19 19 19 18 18 18 18 18 18 18 18 19 19 19
25 25 25 25 25 25 25 25 25 25 25 24 24 24 23 23 22 22 21 21 21 20 20 20 20 20 20 20 20 19 20 20 20 20 19 19 19 19 19 19 19 19 20 19 19 19 19 19 19 19 19 18 19 19 19 19 19 19 19 19 19 19 19 19 19 19 19 19 19 19 19 19 19 19 19 19 19 19 19 19 19 19 19 19 19 20
25 25 24 25 25 25 25 25 25 25 25 24 24 24 23 23 22 22 21 21 21 21 21 21 21 20 20 20 20 20 20 20 20 20 19 19 19 19 20 20 20 20 20 20 20 19 19 19 19 19 19 19 18 19 19 19 19 19 19 19 19 19 19 19 19 19 20 20 20 20 20 20 20 20 20 20 20 20 20 20 20 20 20 20 20 20
25 25 25 25 25 25 25 25 25 25 25 24 24 24 23 22 22 21 21 21 21 21 21 21 21 20 20 20 20 20 20 20 20 20 19 19 19 20 20 20 20 20 20 20 19 19 19 19 19 19 19 19 19 19 19 19 19 19 19 19 19 19 19 20 20 20 20 20 20 20 20 20 21 21 21 21 21 21 21 21 21 21 21 21 21 21
25 25 25 25 25 25 25 25 25 25 25 24 24 23 23 22 22 21 21 21 21 21 21 21 21 21 20 20 20 20 20 20 20 20 19 19 20 20 20 20 20 20 20 20 19 19 19 19 19 19 19 19 19 19 19 19 19 19 19 19 19 19 19 20 20 20 20 20 21 21 21 21 21 21 21 21 21 21 21 21 21 21 21 21 21 21
26 26 26 26 26 26 26 25 25 25 24 24 24 23 23 22 22 21 21 21 21 22 22 21 21 21 21 21 21 21 21 20 20 20 20 20 20 20 20 20 20 20 20 20 19 19 19 19 19 19 19 19 19 19 19 19 19 19 19 19 19 19 20 20 20 20 20 21 21 21 21 22 22 22 22 22 22 22 22 22 22 22 22 22 22 22
26 26 26 26 26 26 26 25 25 25 24 24 24 23 22 22 22 22 22 22 22 22 22 22 21 21 21 21 21 21 21 21 20 20 20 20 20 20 20 20 20 20 20 19 19 19 19 19 19 19 19 19 19 19 19 19 19 19 19 19 19 19 20 20 20 20 21 21 21 21 22 22 22 22 23 23 23 23 23 23 23 22 22 22 22 23
27 27 27 27 26 26 26 25 25 25 24 24 23 23 23 22 22 22 22 22 22 22 22 22 21 21 21 21 22 22 21 21 21 21 21 20 20 20 20 20 20 20 20 19 19 19 19 19 19 19 19 19 19 19 19 19 19 19 19 19 20 20 20 20 20 21 21 21 22 22 22 22 23 23 23 23 23 23 23 23 23 23 23 23 23 23
27 27 27 27 26 26 25 25 25 24 24 24 23 23 23 23 23 23 23 23 22 22 22 22 22 22 22 22 22 22 21 21 21 21 21 21 20 20 20 20 20 20 20 20 19 19 19 19 19 19 19 19 19 19 19 19 19 19 20 20 20 20 20 20 21 21 21 22 22 22 23 23 23 23 23 24 24 24 23 23 23 23 23 23 24 24
27 27 27 27 26 26 25 25 24 24 24 23 23 23 23 23 23 23 23 23 23 23 22 22 22 22 22 22 22 22 22 22 21 21 21 21 20 20 20 20 20 20 20 20 19 19 19 19 19 19 20 19 20 20 20 19 19 20 20 20 20 20 21 21 21 21 22 22 22 23 23 23 23 24 24 24 24 24 24 24 24 24 24 24 24 24
27 27 27 27 26 26 25 24 24 24 24 24 23 24 24 24 24 24 24 23 23 23 22 22 23 23 23 23 23 22 22 22 21 21 21 21 20 20 20 20 20 20 20 19 19 19 19 19 19 20 20 20 20 20 20 20 20 20 20 20 20 21 21 22 22 22 22 23 23 23 23 24 24 24 24 24 24 24 24 24 24 24 25 25 25 25
28 28 28 27 26 26 25 24 24 24 24 24 24 24 24 24 24 24 24 23 23 23 23 23 23 23 23 23 23 22 22 22 22 21 21 21 21 20 20 20 20 20 20 20 19 19 19 19 19 20 20 20 20 20 20 20 20 20 20 20 21 22 22 22 22 23 23 23 23 24 24 24 24 24 24 24 24 24 24 24 24 25 25 25 26 26
28 28 28 27 26 26 25 24 24 24 24 24 24 24 25 25 24 24 24 23 23 23 23 24 24 23 23 23 23 23 22 22 22 21 21 21 21 21 21 21 20 20 20 20 20 20 20 20 20 20 20 20 20 20 20 20 21 21 21 21 22 22 22 22 23 23 23 23 24 24 24 24 24 24 25 25 25 25 25 25 25 25 25 26 26 26
28 28 28 27 26 26 25 24 24 24 24 24 25 25 25 25 24 24 23 23 23 24 24 24 24 24 23 23 23 23 23 22 22 22 21 21 21 21 21 21 21 21 21 20 20 20 20 20 20 21 21 21 21 20 21 21 22 22 22 23 23 23 23 23 24 24 24 24 24 24 24 25 25 25 25 25 25 25 25 25 25 25 26 26 26 27
28 28 27 27 26 26 25 25 25 25 25 25 25 25 25 25 24 24 24 24 24 24 25 25 24 23 23 23 23 23 23 23 22 22 22 22 22 22 21 21 21 21 21 21 21 21 21 21 21 22 22 21 21 21 22 22 23 23 24 24 24 24 24 25 25 25 25 25 25 25 25 25 25 25 25 25 25 25 25 25 25 26 26 26 27 27
27 27 27 27 27 26 26 25 25 25 25 25 25 25 25 25 25 24 24 24 25 25 25 25 24 24 23 24 24 24 24 23 23 23 22 22 22 22 22 22 22 22 22 22 22 22 22 22 22 22 22 22 22 22 23 23 24 25 25 26 26 26 26 26 26 26 26 26 26 26 26 26 25 25 25 25 25 26 26 26 26 26 27 27 27 28
27 27 27 27 27 27 27 26 26 26 26 26 26 26 26 25 25 25 25 25 25 26 26 25 24 24 24 24 24 24 24 24 24 23 23 23 23 23 23 23 23 23 23 23 23 23 23 23 23 23 23 23 23 23 24 25 25 26 27 27 27 27 27 27 28 28 28 28 27 27 27 26 26 25 25 25 26 26 26 27 27 27 27 28 28 28
28 28 28 28 28 28 27 27 26 26 26 26 26 26 26 26 26 25 25 26 26 26 26 25 25 24 24 25 25 25 25 25 25 24 24 24 24 24 24 24 24 24 24 24 24 24 24 24 24 24 24 24 24 24 25 26 27 27 28 28 29 29 28 29 29 29 29 29 28 28 27 26 26 25 25 26 26 26 27 27 28 28 28 28 28 28
28 28 28 28 28 28 27 27 26 26 26 27 27 27 27 27 27 26 26 27 27 26 26 26 25 25 25 25 25 26 26 26 26 25 25 25 25 25 25 25 25 25 25 25 25 25 25 25 25 25 25 25 25 25 26 27 28 28 29 29 29 29 29 30 30 30 29 29 28 28 27 26 26 26 26 26 26 26 27 28 28 29 29 29 29 29
29 29 28 28 28 27 27 27 27 27 27 27 27 27 28 27 27 27 27 27 27 27 27 26 26 26 26 26 26 26 27 27 27 27 27 27 26 26 26 26 26 26 26 26 26 26 26 26 26 26 26 26 26 26 26 27 28 29 29 30 30 30 30 30 30 30 30 29 28 28 27 27 26 26 27 27 27 27 27 28 29 30 30 30 30 29
29 28 28 28 27 27 27 27 27 27 27 28 28 28 28 28 28 28 28 28 28 28 27 27 27 27 27 27 27 27 28 28 28 28 28 28 28 28 27 27 27 27 27 27 27 27 27 27 26 26 26 27 27 27 27 27 28 29 29 30 30 30 30 30 31 30 30 29 29 28 28 28 28 28 28 28 28 28 28 28 29 30 31 31 30 30
Wind_Direction
291 290 290 289 289 288 288 288 288 289 289 290 290 290 289 287 284 281 281 280 280 280 280 280 279 276 272 270 274 280 285 288 288 286 283 280 278 278 282 289 295 295 293 290 287 286 284 282 280 277 274 270 266 263 260 257 256 255 254 255 255 256 257 258 258 258 257 256 255 253 252 251 252 253 254 256 259 263 267 272 276 280 282 283 283 284
289 289 288 288 287 287 287 287 287 288 288 289 289 288 287 284 281 279 278 278 277 277 277 277 274 271 268 269 275 282 287 287 285 281 278 277 276 278 283 290 294 293 290 288 286 284 283 280 278 274 271 267 263 260 257 255 254 253 254 254 255 256 256 256 255 254 253 252 251 250 250 250 251 253 255 258 262 266 270 273 276 279 280 281 282 282
288 288 287 286 286 285 285 286 286 286 286 287 287 286 283 280 278 277 276 275 274 274 273 272 269 267 266 270 278 285 287 284 280 276 274 275 276 278 284 290 292 290 288 286 285 283 281 278 275 271 268 264 261 258 255 254 253 253 253 254 255 256 255 254 252 250 249 248 248 248 249 250 251 253 256 260 263 267 270 273 275 277 278 279 279 280
288 287 286 285 285 284 284 284 285 285 285 286 285 283 280 277 276 275 274 273 272 270 269 268 265 264 266 273 281 285 283 279 275 273 273 274 275 278 284 289 289 287 286 285 284 282 279 276 272 269 265 262 259 256 254 253 253 253 254 254 255 254 253 251 249 247 246 246 246 247 248 249 251 254 256 260 264 267 269 271 273 275 276 277 277 278
287 286 285 284 284 283 283 283 284 285 285 284 282 279 277 275 274 273 272 271 269 267 266 263 262 263 268 275 280 281 279 275 273 272 272 273 275 279 284 287 286 285 285 284 283 280 277 274 270 266 262 259 257 255 254 254 254 254 255 254 254 252 250 248 246 244 244 244 245 246 247 249 251 254 257 260 263 266 268 270 271 273 274 275 276 277
285 284 284 283 282 282 283 283 284 284 283 281 279 276 275 274 272 271 270 269 267 265 263 261 261 263 268 274 277 276 274 273 272 272 272 273 275 279 284 285 283 283 283 282 281 278 274 271 267 263 260 257 255 254 254 254 255 255 254 254 252 250 247 245 243 242 242 243 244 246 247 249 251 254 257 259 262 265 267 268 270 271 273 274 275 276
283 282 281 281 281 281 282 282 282 281 280 278 276 274 272 271 270 269 268 267 266 264 262 260 260 262 266 271 272 272 272 271 271 271 272 273 276 281 284 282 281 281 281 280 278 275 272 268 265 261 258 256 255 254 254 255 255 254 253 252 249 247 245 243 242 242 242 244 245 247 249 251 253 255 258 260 262 264 266 267 269 270 271 272 273 274
281 281 280 280 280 281 281 280 280 279 277 274 272 270 269 268 268 267 267 266 265 263 262 260 260 262 265 267 269 270 270 270 270 271 272 274 279 282 282 280 279 279 279 277 274 272 269 266 263 260 258 257 256 255 256 256 255 253 251 249 247 245 243 242 241 242 243 245 247 249 251 253 255 257 259 261 263 264 265 267 267 269 269 271 271 273
280 280 280 279 279 280 279 278 277 276 274 272 269 267 265 265 265 266 266 265 264 263 262 260 261 263 266 267 267 267 268 268 270 271 273 277 281 283 279 277 277 277 276 274 271 268 266 264 262 261 260 259 258 257 257 256 254 252 249 247 244 243 242 241 242 243 245 247 249 251 253 255 257 258 260 261 262 263 264 265 266 267 268 269 270 271
279 279 279 279 279 278 277 277 276 274 272 269 267 265 263 263 263 263 263 263 263 263 263 263 264 267 270 269 267 266 266 268 269 272 275 280 282 280 276 275 275 274 272 270 268 265 264 263 262 262 261 260 259 258 257 256 254 251 248 245 243 242 241 242 243 244 246 248 250 252 254 256 258 259 260 261 261 262 263 264 265 266 267 268 269 271
278 278 278 278 277 277 276 275 274 272 269 266 264 262 262 261 260 260 260 261 262 263 265 267 270 272 272 270 268 267 267 268 271 274 279 282 281 276 273 273 273 271 269 267 265 263 263 262 262 262 262 261 260 258 256 254 252 250 246 244 242 242 242 243 244 246 248 250 252 254 255 257 258 259 259 260 261 261 262 263 264 265 267 268 269 271
277 277 276 276 276 276 275 274 272 270 266 262 260 259 259 259 259 258 259 260 261 264 268 272 275 275 273 270 269 269 270 271 274 278 282 282 277 272 271 271 270 268 266 264 262 262 262 262 262 262 261 260 259 257 255 253 250 248 246 244 243 243 243 244 246 248 250 251 253 255 256 257 258 259 259 259 260 260 261 262 263 265 267 268 269 271
275 275 274 274 274 274 273 272 269 265 262 259 258 258 257 257 257 257 257 258 261 266 270 273 274 273 272 271 271 272 273 275 279 282 283 278 272 269 269 268 266 265 263 262 261 261 262 262 261 261 260 258 257 255 253 251 250 248 246 245 245 244 245 246 248 249 251 253 254 256 257 258 258 258 258 258 259 260 261 262 263 264 266 268 269 270
273 273 273 273 272 272 270 267 265 262 260 259 257 256 255 254 255 255 257 260 263 267 269 270 269 269 269 271 272 274 276 279 282 283 280 275 271 269 267 266 263 262 261 260 260 261 261 261 260 259 258 256 255 253 252 250 249 248 247 247 247 247 247 248 250 251 252 254 255 257 258 258 258 258 258 258 258 259 260 261 263 264 265 267 268 270
272 272 271 271 270 269 267 265 263 262 260 258 256 255 254 254 255 257 260 264 268 269 269 268 267 267 269 271 274 276 278 281 282 281 276 273 270 268 266 263 261 260 259 259 260 260 260 260 259 258 256 255 254 253 251 250 250 249 249 249 249 249 250 250 252 253 254 255 256 257 258 258 258 258 258 258 258 259 259 260 262 263 265 266 267 269
271 270 269 267 267 267 266 265 264 263 260 257 256 255 255 257 260 264 268 271 272 272 270 268 266 267 269 272 274 277 280 281 280 277 273 271 268 265 263 261 259 259 259 259 259 258 258 258 257 257 256 255 254 253 252 251 250 250 250 250 251 251 251 252 253 254 255 256 257 257 258 257 257 257 257 257 257 258 259 260 261 263 264 266 267 268
270 269 268 268 268 268 267 266 264 263 261 260 259 260 262 265 269 273 275 275 274 272 269 266 265 267 271 274 276 278 280 279 277 274 270 268 265 262 260 259 258 258 258 257 257 257 256 256 256 255 255 254 254 253 252 251 251 251 251 251 252 252 253 253 254 255 256 257 257 257 257 257 257 257 257 257 257 258 259 260 261 262 264 265 266 267
270 269 270 271 271 269 267 266 265 264 264 264 265 267 270 274 277 278 278 275 271 267 266 266 267 270 274 276 278 279 279 276 273 269 266 264 261 259 258 257 257 257 256 256 255 254 254 254 254 254 254 254 254 253 253 252 252 252 252 252 252 252 253 254 255 256 256 257 257 257 256 256 256 256 256 256 257 257 259 260 261 262 264 265 266 267
271 270 270 268 267 265 264 263 263 264 265 266 268 272 276 277 278 277 275 272 268 266 266 267 270 273 276 278 280 280 277 273 269 265 262 260 258 257 256 255 255 255 255 254 253 252 252 252 253 253 254 254 254 254 254 253 253 253 252 252 253 253 253 254 255 256 256 256 256 256 256 256 255 255 255 256 257 257 258 260 261 263 264 265 266 267
271 270 267 263 260 258 258 258 259 261 263 265 268 271 273 274 274 272 269 267 266 266 267 269 271 274 277 279 279 277 273 269 264 261 258 256 255 255 254 254 254 254 253 253 252 252 251 252 252 253 253 254 254 254 254 254 254 253 253 253 253 254 254 255 255 255 256 256 256 255 255 255 254 255 255 255 256 257 258 260 261 262 263 265 266 267
268 266 264 261 257 255 255 256 257 260 261 263 265 267 268 269 268 267 266 265 265 266 268 270 272 275 277 277 274 271 268 264 260 257 254 253 253 253 253 253 252 252 252 253 252 252 252 252 253 253 254 254 254 254 254 254 254 254 254 254 254 254 255 255 255 255 255 255 255 254 254 254 254 254 254 255 256 257 258 259 261 262 263 264 266 267
267 264 262 260 258 257 258 259 260 262 262 263 264 264 264 264 264 264 264 265 266 268 269 271 273 274 275 272 268 265 262 259 256 253 252 252 252 252 252 252 251 251 252 253 253 254 254 254 254 254 255 255 255 255 255 255 255 255 255 255 255 255 255 255 255 255 255 254 254 254 253 253 253 254 254 254 255 256 258 259 260 262 263 265 266 267
269 266 264 262 261 261 261 262 264 264 265 265 264 263 263 262 263 263 265 266 268 269 270 272 273 272 270 267 264 261 258 255 253 252 251 251 250 251 251 251 251 252 253 254 255 255 256 255 256 256 256 256 256 256 255 255 255 255 255 255 255 255 255 255 255 254 254 254 253 253 253 253 253 253 253 254 255 256 258 259 261 262 264 266 267 268
271 269 267 266 264 263 263 264 264 265 265 265 265 264 263 263 263 264 266 267 269 270 271 271 270 268 265 262 259 256 254 252 251 250 250 250 249 250 250 251 252 253 254 255 256 257 257 257 257 257 257 257 257 256 256 256 256 255 255 255 255 255 255 254 254 254 253 253 253 253 252 252 252 252 253 254 255 256 258 260 262 263 265 267 268 269
273 272 270 268 266 264 264 263 264 264 265 265 265 265 265 265 266 267 268 269 270 271 270 268 266 263 261 258 255 253 251 249 249 249 249 249 249 249 250 252 253 254 255 257 258 258 258 259 258 258 258 258 257 257 256 256 256 255 255 255 255 254 254 254 253 253 252 252 252 252 252 252 252 252 253 254 255 257 259 261 263 264 266 268 269 270
273 273 270 268 265 264 263 263 263 264 265 267 268 269 269 270 271 272 272 272 272 270 267 264 262 259 257 254 252 250 249 248 248 248 248 248 248 249 251 252 253 255 256 257 259 259 259 259 259 259 259 258 258 257 256 256 255 255 255 254 254 253 253 253 252 252 252 251 251 251 251 252 252 253 253 255 256 258 260 261 264 265 267 269 270 271
272 272 269 266 264 263 263 264 265 267 269 271 273 274 275 275 275 275 274 273 270 267 264 261 258 256 253 251 249 248 247 246 247 247 247 248 249 250 252 253 254 256 257 258 259 259 259 259 259 259 259 259 258 257 256 256 255 255 254 254 253 253 252 252 252 251 251 251 250 251 251 251 252 253 254 255 257 259 261 262 264 266 268 269 271 272
271 270 268 266 264 264 265 267 268 270 272 274 276 277 277 277 276 275 272 270 267 264 261 258 255 253 250 249 247 246 245 245 245 246 247 248 249 251 253 254 255 256 257 258 259 259 259 259 259 259 259 258 258 257 256 255 254 254 253 253 252 252 252 251 251 251 250 250 250 250 250 251 252 253 254 256 257 259 261 263 265 267 268 270 271 272
269 269 267 266 266 266 267 269 270 272 274 275 276 276 276 275 274 272 269 266 264 261 259 256 253 250 248 247 245 245 244 244 245 246 247 249 250 252 254 256 257 258 258 258 258 259 259 259 258 258 258 258 257 256 255 255 254 253 253 253 252 252 252 251 251 250 250 250 250 250 251 251 252 253 255 256 258 260 262 264 265 267 269 270 272 272
269 268 267 267 267 268 269 270 271 272 273 273 273 273 273 271 270 268 265 264 262 259 256 253 251 248 247 245 244 244 244 245 246 247 248 250 252 254 256 257 258 258 258 258 258 258 259 258 258 257 257 257 256 255 255 254 254 253 253 253 252 252 252 251 251 251 251 250 250 250 251 252 253 254 255 257 259 260 262 264 266 268 269 271 272 273
268 268 268 269 269 270 271 271 272 272 272 271 271 270 269 267 266 265 263 262 259 257 254 251 249 247 246 245 244 244 245 247 248 249 251 253 254 256 257 258 259 259 259 259 258 258 258 258 258 257 256 255 255 255 254 254 253 253 253 253 253 253 252 252 252 251 251 251 251 251 252 252 253 255 256 258 259 261 263 265 266 268 269 271 272 273
268 269 269 270 270 271 271 271 271 270 270 269 268 267 266 265 264 262 261 259 257 255 252 250 248 246 245 245 244 245 246 249 251 252 253 255 256 257 258 259 259 259 259 259 259 258 258 258 258 257 256 255 255 254 254 254 254 253 253 253 254 253 253 253 253 252 252 252 252 252 253 253 254 256 257 259 261 262 264 266 267 269 270 271 272 273
269 269 269 270 270 270 270 270 269 269 268 267 266 266 264 263 262 261 259 257 255 253 251 249 247 246 245 245 246 247 248 251 253 254 256 256 257 258 258 258 259 259 259 259 259 259 258 258 258 258 257 256 255 255 255 254 254 254 254 254 254 255 255 254 254 254 254 253 253 254 254 255 256 257 258 260 262 263 265 267 268 269 270 271 272 273
269 269 269 270 270 270 269 269 268 267 267 266 265 264 263 262 261 259 257 256 254 252 250 249 247 246 246 246 247 249 251 252 254 256 257 257 257 258 258 258 258 258 259 259 259 259 258 258 258 258 257 257 256 255 255 256 256 256 256 256 256 256 256 256 256 255 255 255 255 255 256 256 258 259 260 262 263 265 266 267 269 270 271 272 273 273
269 269 269 269 269 269 268 268 267 266 265 265 264 263 262 261 259 258 256 254 253 251 250 248 247 247 247 248 250 251 253 254 256 257 258 258 257 257 257 258 258 258 258 258 258 258 258 257 257 257 257 257 257 257 257 257 257 257 257 257 257 257 257 257 257 257 257 257 257 257 258 258 259 261 262 263 265 266 267 268 270 271 272 272 273 273
269 269 268 268 268 268 268 267 266 266 265 264 263 262 261 260 258 257 255 253 251 250 249 248 248 249 249 250 252 253 255 256 257 257 257 257 257 256 257 257 258 258 258 258 258 257 257 257 257 257 257 257 258 258 258 258 258 258 258 259 259 259 259 258 258 258 258 258 259 259 260 261 261 262 264 265 266 267 268 269 270 271 272 273 273 273
268 268 267 267 267 267 266 266 265 264 264 263 262 262 261 259 257 255 253 251 250 249 249 249 249 250 252 253 254 255 256 257 257 257 257 256 256 256 256 257 257 258 258 257 257 257 256 256 256 256 257 257 257 258 258 258 259 259 259 259 259 259 259 259 259 259 260 260 260 261 261 262 263 264 265 266 267 268 269 270 271 272 272 273 273 273
267 267 266 266 265 265 264 264 264 263 263 262 262 260 259 257 255 253 251 249 249 248 248 249 250 252 253 255 256 257 257 258 257 257 256 256 256 256 256 257 257 257 257 257 257 256 256 256 256 257 257 257 257 257 258 259 259 260 260 260 260 260 260 260 260 260 261 261 261 262 263 263 264 265 266 267 268 269 270 271 272 272 272 272 272 272
267 266 265 264 264 263 263 262 262 261 261 260 259 258 256 254 252 250 249 248 247 247 248 250 251 253 255 256 257 257 258 258 258 257 257 256 256 256 256 256 257 257 257 256 256 256 256 256 256 256 257 257 257 257 257 258 259 260 260 260 260 260 260 260 261 261 261 262 262 263 263 264 265 266 267 268 269 270 271 272 272 272 272 272 272 271
266 265 264 263 263 262 261 260 260 259 258 257 256 255 253 251 250 248 247 246 246 247 248 250 252 254 255 256 257 257 258 258 257 257 257 257 256 256 256 256 256 256 256 256 256 255 256 256 256 256 256 257 257 258 258 259 259 260 260 261 261 261 261 261 261 262 262 262 263 263 264 265 266 266 267 268 269 270 271 272 272 272 272 272 271 271
266 265 264 263 262 261 260 259 258 257 256 255 253 252 250 249 248 247 246 246 246 247 249 251 253 254 255 256 257 257 257 257 257 257 257 257 256 256 256 256 256 256 256 255 255 255 255 255 255 256 256 257 257 258 259 259 260 260 261 261 262 262 263 263 263 263 264 264 264 265 265 266 267 268 268 269 270 271 271 271 271 271 271 271 271 270
266 265 264 263 262 261 260 258 257 256 255 253 251 250 248 247 246 246 245 246 247 249 251 252 254 255 255 256 256 257 257 257 257 257 257 256 256 256 255 255 255 255 255 255 255 254 254 254 255 255 256 257 258 259 260 261 261 262 262 262 262 263 264 265 265 265 265 266 266 267 267 268 268 269 269 270 270 271 271 271 271 271 271 271 271 270
267 266 265 264 263 261 260 258 257 255 254 252 250 248 247 246 245 245 246 247 248 250 252 253 254 255 256 256 256 256 256 256 256 256 256 256 256 255 255 255 255 255 255 255 254 254 254 255 255 256 257 258 259 260 262 262 263 263 263 263 263 263 265 266 267 267 267 267 268 269 269 269 270 270 270 270 270 270 270 270 270 270 270 270 270 270
267 266 265 264 263 262 260 259 257 255 253 251 249 247 246 245 245 245 246 248 250 251 253 254 255 255 256 256 256 256 256 255 255 255 255 255 255 255 255 254 254 254 254 254 254 254 255 255 256 257 258 260 261 262 264 264 265 265 264 264 265 265 266 267 267 268 269 269 270 270 270 271 271 270 270 270 270 270 270 270 269 269 269 270 269 269
267 266 265 265 264 263 261 260 257 255 252 250 248 246 245 245 245 245 247 249 251 252 253 254 255 255 256 256 256 256 256 255 255 254 254 254 254 254 254 254 254 254 254 255 255 255 256 257 258 259 261 262 263 265 265 266 267 267 267 267 268 268 268 269 270 270 270 270 270 270 271 271 271 271 271 270 270 270 270 269 269 269 269 269 269 269
266 266 265 265 264 263 262 259 257 254 252 249 248 246 245 245 245 246 247 249 251 252 253 254 255 255 255 256 256 256 256 255 255 255 254 254 254 254 254 254 254 255 255 256 256 257 258 259 260 261 263 264 266 267 267 268 268 269 269 270 271 271 271 272 272 272 272 272 271 271 271 271 271 270 270 270 270 270 270 270 269 269 269 269 269 269
267 266 266 265 264 263 261 259 256 254 251 249 247 246 246 246 246 247 248 250 251 253 254 254 254 254 255 255 255 256 256 256 255 255 255 254 254 254 254 255 255 256 256 257 258 259 260 261 262 263 264 266 267 268 268 269 269 270 271 272 273 274 274 274 274 274 273 273 273 272 272 271 271 270 270 270 270 270 270 270 270 270 269 269 269 269
268 267 266 265 264 262 260 258 255 253 250 249 248 247 247 247 248 249 250 251 252 253 254 254 254 254 254 255 255 255 256 256 256 256 256 255 255 255 255 256 256 257 257 258 259 260 261 262 263 264 265 266 267 268 269 269 270 271 272 273 275 275 275 275 275 275 274 274 274 274 273 273 272 271 270 269 269 270 270 271 271 270 270 270 270 269
270 268 267 265 264 262 259 257 254 252 250 249 248 248 249 249 249 250 251 252 253 254 254 254 254 254 254 255 255 255 256 256 256 256 256 256 256 257 257 257 257 258 259 259 260 261 262 263 264 265 266 266 267 267 268 269 270 272 273 274 275 275 276 275 275 275 275 275 276 275 275 274 273 272 270 270 269 269 270 271 271 271 271 271 270 270
271 269 267 265 263 261 258 256 253 251 250 249 249 250 251 251 251 252 253 254 254 255 255 255 255 255 255 255 256 256 256 257 257 257 257 257 257 258 258 258 259 259 260 261 262 262 263 264 264 265 266 266 266 267 267 268 270 272 273 274 275 275 275 275 275 275 276 277 277 277 277 276 274 273 272 271 270 270 270 271 271 272 271 271 271 271
271 269 266 264 261 259 256 255 253 252 251 251 251 252 253 254 254 255 255 255 256 256 256 256 256 256 256 256 257 257 258 258 258 258 258 258 258 258 259 259 260 261 262 262 263 263 264 264 264 265 266 267 267 267 267 268 269 271 273 274 274 274 274 274 275 275 276 277 278 278 277 277 276 275 274 273 272 272 271 272 272 272 272 272 272 271
Height
3095 3095 3095 3095 3095 3095 3095 3095 3095 3095 3095 3095 3095 3094 3094 3094 3094 3093 3093 3092 3092 3092 3092 3092 3092 3092 3093 3093 3093 3093 3092 3092 3092 3092 3092 3092 3092 3091 3091 3091 3091 3090 3090 3089 3089 3088 3088 3087 3087 3087 3087 3087 3087 3087 3087 3087 3087 3088 3088 3088 3089 3089 3089 3090 3090 3090 3090 3091 3091 3091 3091 3092 3092 3092 3092 3093 3093 3093 3094 3094 3094 3094 3094 3095 3095 3095
3092 3092 3092 3093 3092 3092 3092 3092 3092 3092 3092 3092 3092 3092 3092 3091 3091 3091 3090 3090 3090 3090 3090 3090 3090 3090 3091 3091 3091 3091 3090 3091 3091 3091 3091 3090 3090 3089 3089 3089 3089 3088 3088 3087 3087 3086 3086 3086 3086 3085 3085 3085 3085 3086 3086 3086 3086 3086 3087 3087 3087 3088 3088 3088 3088 3089 3089 3089 3090 3090 3090 3091 3091 3091 3091 3092 3092 3092 3093 3093 3093 3093 3094 3094 3094 3094
3090 3090 3090 3090 3090 3089 3089 3089 3090 3090 3090 3090 3089 3089 3089 3089 3088 3088 3088 3087 3087 3088 3088 3088 3088 3088 3088 3088 3088 3088 3088 3089 3089 3089 3089 3088 3088 3087 3087 3087 3087 3086 3086 3085 3085 3085 3085 3084 3084 3084 3084 3084 3084 3084 3084 3085 3085 3085 3086 3086 3086 3086 3086 3087 3087 3087 3088 3088 3088 3089 3089 3089 3090 3090 3090 3091 3091 3091 3091 3092 3092 3092 3093 3093 3093 3093
3087 3086 3086 3086 3087 3086 3086 3087 3087 3087 3087 3087 3087 3086 3086 3086 3086 3085 3085 3085 3085 3085 3086 3086 3086 3086 3086 3086 3086 3086 3086 3087 3087 3087 3086 3086 3086 3086 3085 3085 3085 3084 3084 3083 3083 3083 3083 3083 3082 3082 3082 3082 3083 3083 3083 3083 3084 3084 3084 3085 3085 3085 3085 3086 3086 3086 3086 3087 3087 3088 3088 3088 3089 3089 3089 3090 3090 3090 3091 3091 3091 3091 3091 3092 3092 3092
3084 3083 3083 3083 3083 3083 3084 3084 3084 3084 3084 3084 3084 3084 3083 3083 3083 3083 3083 3083 3083 3083 3083 3084 3084 3084 3083 3084 3084 3084 3085 3085 3085 3084 3084 3084 3083 3083 3083 3083 3083 3082 3081 3081 3081 3081 3081 3081 3081 3081 3081 3081 3081 3081 3082 3082 3082 3082 3083 3083 3083 3084 3084 3084 3085 3085 3086 3086 3086 3086 3087 3087 3088 3088 3088 3088 3089 3089 3089 3090 3090 3090 3091 3091 3091 3091
3081 3081 3080 3080 3080 3081 3081 3082 3082 3081 3081 3081 3081 3081 3080 3080 3080 3080 3081 3081 3081 3081 3081 3081 3081 3081 3081 3082 3082 3082 3083 3083 3082 3082 3081 3081 3081 3081 3081 3081 3081 3080 3080 3080 3080 3080 3080 3080 3080 3080 3080 3080 3080 3080 3081 3081 3081 3081 3081 3082 3082 3082 3083 3083 3083 3084 3084 3085 3085 3086 3086 3086 3086 3087 3087 3087 3088 3088 3088 3089 3089 3089 3089 3089 3090 3090
3077 3077 3078 3078 3078 3078 3079 3079 3079 3079 3079 3078 3078 3078 3078 3078 3078 3078 3078 3078 3078 3079 3079 3079 3079 3079 3079 3080 3080 3081 3080 3081 3080 3080 3079 3079 3079 3079 3079 3079 3078 3078 3078 3078 3078 3078 3078 3078 3078 3078 3078 3078 3079 3079 3079 3079 3080 3080 3080 3080 3081 3081 3081 3082 3082 3083 3083 3083 3084 3084 3085 3085 3085 3086 3086 3086 3086 3087 3087 3087 3088 3088 3088 3088 3088 3089
3074 3075 3075 3075 3076 3076 3076 3076 3076 3076 3076 3076 3076 3076 3076 3076 3076 3076 3076 3076 3076 3077 3077 3077 3077 3077 3077 3078 3078 3078 3078 3078 3078 3077 3077 3077 3076 3077 3077 3077 3076 3076 3076 3076 3076 3076 3076 3076 3077 3077 3077 3077 3077 3078 3078 3078 3078 3078 3079 3079 3079 3080 3080 3081 3081 3081 3082 3082 3083 3083 3083 3084 3084 3084 3085 3085 3085 3086 3086 3086 3086 3086 3087 3087 3087 3088
3071 3071 3072 3072 3073 3073 3073 3073 3073 3074 3073 3073 3073 3073 3073 3073 3073 3074 3074 3074 3075 3075 3075 3074 3075 3075 3075 3076 3076 3076 3076 3076 3075 3075 3075 3075 3074 3075 3075 3074 3074 3074 3074 3075 3075 3075 3075 3075 3075 3075 3076 3076 3076 3076 3076 3076 3077 3077 3077 3078 3078 3078 3079 3079 3080 3080 3081 3081 3081 3082 3082 3082 3083 3083 3083 3084 3084 3084 3085 3085 3085 3086 3086 3086 3086 3086
3069 3069 3069 3070 3070 3070 3070 3070 3071 3071 3071 3071 3071 3071 3071 3071 3071 3072 3072 3072 3072 3072 3072 3072 3072 3073 3073 3073 3074 3074 3074 3073 3073 3073 3073 3072 3072 3073 3072 3072 3072 3072 3073 3073 3073 3073 3073 3074 3074 3074 3074 3074 3074 3075 3075 3075 3075 3076 3076 3076 3077 3077 3078 3078 3078 3079 3079 3080 3080 3080 3081 3081 3081 3082 3082 3082 3083 3083 3083 3084 3084 3084 3084 3085 3085 3085
3066 3066 3066 3066 3067 3067 3068 3068 3068 3068 3068 3068 3068 3068 3069 3069 3069 3070 3070 3070 3070 3070 3070 3070 3070 3071 3071 3071 3071 3071 3071 3071 3071 3071 3070 3070 3070 3071 3070 3070 3070 3071 3071 3071 3071 3072 3072 3072 3072 3072 3072 3073 3073 3073 3073 3074 3074 3074 3074 3075 3075 3076 3076 3077 3077 3078 3078 3078 3079 3079 3079 3080 3080 3081 3081 3081 3081 3082 3082 3082 3083 3083 3083 3083 3083 3084
3064 3064 3064 3064 3065 3065 3065 3065 3066 3066 3066 3066 3066 3066 3067 3067 3067 3068 3068 3068 3068 3068 3068 3068 3068 3069 3069 3069 3069 3069 3069 3069 3069 3068 3068 3068 3068 3068 3068 3068 3068 3069 3069 3070 3070 3070 3070 3071 3071 3071 3071 3071 3071 3071 3072 3072 3072 3073 3073 3074 3074 3075 3075 3076 3076 3076 3076 3077 3077 3078 3078 3078 3079 3079 3080 3080 3080 3081 3081 3081 3081 3081 3082 3082 3082 3082
3061 3062 3062 3062 3062 3063 3063 3063 3063 3063 3063 3064 3064 3065 3065 3065 3066 3066 3066 3066 3066 3066 3066 3066 3066 3067 3067 3067 3067 3067 3067 3067 3067 3066 3066 3066 3066 3066 3066 3066 3067 3067 3068 3068 3068 3068 3069 3069 3069 3069 3069 3070 3070 3070 3070 3071 3071 3071 3072 3072 3073 3073 3074 3074 3075 3075 3075 3076 3076 3076 3077 3077 3077 3078 3078 3079 3079 3079 3079 3080 3080 3080 3080 3081 3081 3081
3060 3060 3060 3060 3061 3061 3061 3061 3061 3061 3061 3062 3062 3063 3063 3063 3063 3063 3063 3063 3063 3064 3064 3064 3065 3065 3065 3065 3065 3065 3065 3065 3064 3064 3064 3064 3064 3064 3064 3065 3065 3066 3066 3066 3066 3067 3067 3067 3067 3068 3068 3068 3068 3069 3069 3069 3070 3070 3071 3071 3071 3072 3072 3073 3073 3073 3074 3074 3075 3075 3076 3076 3076 3076 3077 3077 3077 3078 3078 3078 3078 3079 3079 3079 3079 3080
3058 3058 3058 3058 3058 3059 3059 3059 3059 3060 3060 3060 3061 3061 3061 3061 3061 3061 3061 3061 3061 3061 3062 3062 3063 3063 3063 3063 3063 3063 3062 3062 3062 3062 3062 3062 3062 3062 3062 3063 3063 3064 3064 3065 3065 3065 3066 3066 3066 3066 3066 3066 3067 3067 3067 3068 3068 3069 3069 3070 3070 3070 3071 3071 3072 3072 3072 3073 3073 3074 3074 3074 3075 3075 3076 3076 3076 3076 3076 3077 3077 3077 3078 3078 3078 3078
3056 3056 3056 3056 3056 3057 3057 3057 3058 3058 3058 3058 3058 3058 3058 3058 3058 3059 3059 3059 3059 3059 3060 3060 3061 3061 3061 3061 3061 3060 3060 3060 3060 3060 3060 3060 3060 3061 3061 3061 3062 3062 3063 3063 3063 3064 3064 3064 3064 3065 3065 3065 3065 3066 3066 3066 3067 3067 3068 3068 3068 3069 3069 3070 3070 3071 3071 3071 3072 3072 3073 3073 3073 3074 3074 3074 3075 3075 3075 3076 3076 3076 3076 3076 3077 3077
3054 3054 3054 3054 3055 3055 3055 3056 3056 3056 3056 3056 3056 3056 3056 3056 3056 3056 3056 3057 3057 3057 3058 3058 3058 3058 3058 3058 3058 3058 3058 3058 3058 3058 3058 3058 3059 3059 3059 3060 3060 3061 3061 3061 3061 3062 3062 3063 3063 3063 3063 3063 3064 3064 3065 3065 3066 3066 3066 3067 3067 3067 3068 3068 3069 3069 3070 3070 3070 3071 3071 3071 3072 3072 3072 3073 3073 3073 3074 3074 3074 3075 3075 3075 3075 3076
3052 3052 3052 3052 3053 3053 3054 3054 3054 3054 3054 3054 3054 3054 3054 3054 3054 3054 3055 3055 3055 3056 3056 3056 3056 3056 3056 3056 3056 3056 3056 3056 3056 3056 3056 3056 3057 3057 3058 3058 3059 3059 3059 3060 3060 3061 3061 3061 3061 3061 3062 3062 3062 3063 3063 3064 3064 3065 3065 3065 3066 3066 3066 3067 3067 3068 3068 3068 3069 3069 3070 3070 3071 3071 3071 3071 3072 3072 3072 3073 3073 3073 3073 3074 3074 3074
3050 3050 3051 3051 3051 3052 3052 3052 3052 3052 3052 3052 3052 3052 3052 3052 3052 3052 3053 3053 3053 3053 3053 3053 3053 3053 3053 3053 3053 3053 3053 3054 3054 3054 3055 3055 3056 3056 3056 3057 3057 3057 3058 3058 3059 3059 3059 3060 3060 3060 3060 3061 3061 3061 3062 3062 3063 3063 3063 3064 3064 3065 3065 3065 3066 3066 3066 3067 3067 3068 3068 3069 3069 3069 3070 3070 3070 3071 3071 3071 3071 3072 3072 3072 3073 3073
3048 3048 3049 3049 3050 3050 3051 3051 3051 3051 3051 3051 3051 3051 3051 3051 3051 3051 3051 3051 3051 3050 3050 3050 3051 3051 3051 3051 3051 3051 3051 3052 3052 3053 3053 3053 3054 3054 3055 3055 3056 3056 3056 3057 3057 3057 3058 3058 3058 3059 3059 3059 3060 3060 3061 3061 3061 3061 3062 3062 3062 3063 3063 3064 3064 3065 3065 3066 3066 3066 3066 3067 3067 3068 3068 3068 3069 3069 3070 3070 3070 3071 3071 3071 3071 3071
3046 3046 3047 3047 3048 3048 3048 3048 3048 3048 3048 3048 3048 3049 3049 3049 3048 3048 3048 3048 3048 3047 3047 3048 3048 3048 3048 3048 3049 3049 3050 3050 3051 3051 3051 3052 3052 3053 3053 3054 3054 3054 3055 3055 3056 3056 3056 3056 3057 3057 3057 3058 3058 3059 3059 3059 3060 3060 3060 3061 3061 3061 3062 3062 3063 3063 3063 3064 3064 3065 3065 3066 3066 3066 3067 3067 3067 3068 3068 3069 3069 3069 3069 3070 3070 3070
3044 3045 3045 3045 3045 3045 3045 3045 3045 3045 3046 3046 3046 3046 3046 3046 3046 3046 3045 3045 3045 3045 3045 3045 3045 3045 3046 3047 3047 3048 3048 3048 3049 3049 3050 3050 3051 3051 3052 3052 3052 3053 3053 3054 3054 3054 3055 3055 3055 3056 3056 3056 3057 3057 3057 3058 3058 3058 3059 3059 3060 3060 3060 3061 3061 3061 3062 3062 3063 3063 3063 3064 3064 3065 3065 3066 3066 3066 3067 3067 3067 3068 3068 3068 3068 3069
3042 3042 3042 3042 3042 3043 3043 3043 3043 3043 3043 3043 3043 3043 3043 3043 3043 3043 3042 3042 3042 3042 3043 3043 3043 3043 3044 3045 3046 3046 3046 3047 3047 3048 3048 3049 3049 3050 3050 3051 3051 3051 3052 3052 3052 3053 3053 3053 3054 3054 3055 3055 3055 3056 3056 3056 3056 3057 3057 3057 3058 3058 3059 3059 3060 3060 3060 3061 3061 3061 3062 3062 3063 3063 3064 3064 3064 3065 3065 3066 3066 3066 3066 3067 3067 3067
3040 3040 3040 3040 3040 3040 3040 3041 3041 3041 3041 3041 3041 3041 3041 3040 3040 3040 3040 3040 3040 3040 3041 3041 3041 3042 3042 3043 3044 3044 3045 3045 3046 3046 3046 3047 3048 3048 3048 3049 3049 3050 3050 3051 3051 3051 3051 3052 3052 3052 3053 3053 3054 3054 3054 3055 3055 3055 3056 3056 3056 3057 3057 3057 3058 3058 3059 3059 3060 3060 3060 3061 3061 3062 3062 3062 3063 3063 3064 3064 3064 3065 3065 3065 3065 3066
3038 3038 3038 3038 3038 3038 3038 3038 3038 3038 3038 3038 3038 3038 3038 3038 3038 3038 3038 3038 3038 3038 3038 3039 3039 3040 3041 3041 3042 3042 3043 3043 3044 3044 3045 3046 3046 3046 3047 3047 3048 3048 3048 3049 3049 3049 3050 3050 3051 3051 3051 3051 3052 3052 3053 3053 3053 3054 3054 3054 3055 3055 3056 3056 3056 3057 3057 3057 3058 3058 3059 3059 3060 3060 3061 3061 3061 3062 3062 3062 3063 3063 3063 3063 3064 3064
3036 3036 3036 3036 3036 3036 3036 3036 3036 3036 3036 3036 3035 3035 3035 3035 3035 3035 3036 3036 3036 3036 3036 3037 3038 3039 3039 3040 3040 3041 3041 3042 3042 3043 3043 3044 3045 3045 3046 3046 3046 3046 3047 3047 3047 3048 3048 3049 3049 3049 3050 3050 3050 3051 3051 3051 3051 3052 3052 3053 3053 3053 3054 3054 3055 3055 3056 3056 3056 3057 3057 3058 3058 3058 3059 3059 3060 3060 3060 3061 3061 3061 3061 3062 3062 3062
3034 3034 3034 3034 3034 3034 3034 3033 3033 3033 3033 3033 3033 3033 3033 3033 3033 3033 3033 3033 3033 3034 3035 3036 3036 3037 3037 3038 3039 3039 3040 3040 3041 3041 3042 3042 3043 3043 3044 3044 3045 3045 3045 3046 3046 3046 3047 3047 3047 3047 3048 3048 3049 3049 3049 3050 3050 3050 3051 3051 3051 3052 3052 3053 3053 3053 3054 3054 3055 3055 3056 3056 3056 3057 3057 3057 3058 3058 3059 3059 3059 3059 3060 3060 3060 3060
3032 3031 3031 3031 3031 3031 3031 3031 3031 3031 3031 3031 3031 3031 3031 3031 3031 3031 3031 3031 3032 3032 3033 3034 3035 3035 3036 3036 3037 3037 3038 3039 3039 3040 3040 3041 3041 3042 3042 3042 3043 3043 3044 3044 3044 3045 3045 3045 3046 3046 3046 3046 3047 3047 3048 3048 3048 3049 3049 3049 3050 3050 3051 3051 3051 3052 3052 3053 3053 3053 3054 3054 3055 3055 3056 3056 3056 3056 3057 3057 3057 3058 3058 3058 3058 3058
3029 3029 3029 3029 3029 3029 3029 3029 3029 3029 3029 3029 3028 3028 3029 3029 3029 3029 3029 3030 3030 3031 3032 3032 3033 3034 3034 3035 3035 3036 3037 3037 3038 3038 3039 3039 3040 3040 3040 3041 3041 3041 3042 3042 3043 3043 3043 3044 3044 3044 3045 3045 3045 3046 3046 3046 3046 3047 3047 3048 3048 3048 3049 3049 3050 3050 3051 3051 3051 3052 3052 3052 3053 3053 3054 3054 3054 3055 3055 3055 3056 3056 3056 3056 3056 3056
3027 3027 3027 3027 3027 3027 3026 3026 3026 3026 3026 3026 3026 3026 3027 3027 3027 3027 3028 3028 3029 3030 3030 3031 3031 3032 3033 3033 3034 3035 3035 3036 3036 3036 3037 3038 3038 3038 3038 3039 3039 3040 3040 3041 3041 3041 3041 3042 3042 3043 3043 3043 3044 3044 3044 3045 3045 3045 3046 3046 3046 3047 3047 3048 3048 3048 3049 3049 3050 3050 3051 3051 3051 3051 3052 3052 3052 3053 3053 3054 3054 3054 3054 3054 3054 3055
3025 3025 3025 3025 3025 3025 3025 3025 3025 3025 3024 3025 3025 3025 3025 3026 3026 3026 3026 3027 3027 3028 3029 3029 3030 3031 3031 3031 3032 3033 3033 3034 3034 3035 3036 3036 3036 3037 3037 3037 3037 3038 3038 3039 3039 3039 3040 3040 3041 3041 3041 3041 3042 3042 3042 3043 3043 3043 3044 3044 3045 3045 3046 3046 3046 3047 3047 3047 3048 3048 3049 3049 3049 3050 3050 3050 3051 3051 3051 3052 3052 3052 3052 3052 3052 3053
3023 3023 3023 3023 3023 3022 3022 3022 3022 3022 3022 3022 3023 3023 3023 3024 3024 3024 3025 3026 3026 3026 3027 3027 3028 3029 3029 3030 3031 3031 3032 3032 3032 3033 3034 3034 3035 3035 3035 3035 3036 3036 3036 3037 3037 3038 3038 3038 3039 3039 3040 3040 3040 3041 3041 3041 3041 3042 3042 3043 3043 3043 3044 3044 3045 3045 3045 3046 3046 3046 3047 3047 3047 3048 3048 3048 3049 3049 3049 3050 3050 3050 3050 3051 3051 3051
3021 3021 3021 3021 3021 3021 3021 3021 3021 3021 3021 3021 3021 3021 3022 3022 3022 3023 3023 3024 3024 3025 3026 3026 3026 3027 3028 3028 3029 3030 3030 3030 3031 3031 3032 3033 3033 3033 3033 3033 3034 3034 3035 3035 3036 3036 3036 3036 3037 3037 3038 3038 3039 3039 3039 3039 3040 3040 3041 3041 3041 3042 3042 3042 3043 3043 3044 3044 3044 3045 3045 3045 3046 3046 3046 3046 3047 3047 3047 3048 3048 3048 3048 3049 3049 3049
3019 3019 3019 3019 3019 3019 3019 3019 3019 3019 3019 3019 3019 3020 3020 3021 3021 3021 3022 3022 3023 3023 3024 3024 3025 3026 3026 3027 3027 3028 3028 3029 3029 3030 3030 3031 3031 3031 3031 3031 3032 3032 3032 3033 3034 3034 3034 3035 3035 3036 3036 3036 3037 3037 3037 3038 3038 3038 3039 3039 3040 3040 3040 3041 3041 3041 3042 3042 3042 3043 3043 3043 3044 3044 3044 3045 3045 3045 3046 3046 3046 3046 3046 3046 3046 3047
3017 3017 3017 3017 3017 3017 3017 3017 3017 3017 3017 3017 3017 3018 3018 3019 3019 3020 3020 3021 3021 3021 3022 3022 3023 3024 3024 3025 3026 3026 3026 3027 3028 3028 3028 3029 3029 3029 3029 3030 3030 3030 3031 3031 3032 3032 3033 3033 3033 3034 3034 3034 3035 3035 3036 3036 3036 3036 3037 3037 3038 3038 3038 3039 3039 3040 3040 3040 3041 3041 3041 3041 3042 3042 3042 3043 3043 3043 3043 3044 3044 3044 3044 3044 3045 3045
3015 3015 3015 3015 3015 3015 3015 3015 3015 3015 3016 3016 3016 3016 3017 3017 3018 3018 3018 3019 3019 3020 3020 3021 3021 3022 3022 3023 3024 3024 3025 3025 3026 3026 3026 3027 3027 3027 3027 3027 3028 3028 3029 3029 3030 3031 3031 3031 3031 3032 3032 3033 3033 3033 3034 3034 3034 3035 3035 3036 3036 3036 3037 3037 3037 3038 3038 3038 3039 3039 3039 3040 3040 3040 3040 3041 3041 3041 3041 3041 3042 3042 3042 3042 3042 3042
3012 3012 3012 3013 3013 3013 3013 3013 3013 3014 3014 3014 3014 3015 3015 3016 3016 3016 3017 3017 3017 3018 3018 3019 3020 3020 3021 3021 3022 3022 3023 3023 3024 3024 3025 3025 3025 3025 3026 3026 3026 3026 3027 3027 3028 3029 3029 3029 3030 3030 3031 3031 3031 3031 3031 3032 3032 3033 3033 3034 3034 3035 3035 3035 3035 3036 3036 3036 3036 3037 3037 3037 3038 3038 3038 3038 3039 3039 3039 3039 3039 3040 3040 3040 3040 3040
3010 3010 3010 3010 3011 3011 3011 3011 3011 3012 3012 3012 3013 3013 3013 3014 3014 3014 3015 3015 3016 3016 3017 3017 3018 3018 3019 3019 3020 3020 3021 3021 3022 3022 3022 3023 3023 3023 3024 3024 3024 3025 3025 3026 3026 3026 3027 3027 3028 3028 3028 3029 3029 3029 3030 3030 3031 3031 3031 3032 3032 3032 3033 3033 3033 3034 3034 3034 3035 3035 3035 3035 3036 3036 3036 3036 3036 3036 3036 3037 3037 3037 3037 3037 3038 3038
3008 3008 3008 3008 3008 3009 3009 3009 3010 3010 3010 3011 3011 3011 3011 3011 3012 3012 3013 3013 3014 3015 3015 3016 3016 3016 3017 3018 3018 3018 3019 3019 3020 3020 3020 3021 3021 3021 3021 3022 3022 3023 3023 3024 3024 3025 3025 3026 3026 3026 3026 3027 3027 3027 3028 3028 3028 3029 3029 3030 3030 3031 3031 3031 3031 3031 3032 3032 3032 3032 3033 3033 3033 3033 3034 3034 3034 3034 3034 3034 3035 3035 3035 3035 3035 3035
3006 3006 3006 3006 3006 3006 3007 3007 3008 3008 3008 3009 3009 3009 3009 3010 3010 3011 3011 3012 3012 3013 3013 3014 3014 3015 3015 3016 3016 3016 3017 3017 3018 3018 3018 3018 3019 3019 3020 3020 3020 3021 3021 3022 3022 3023 3023 3023 3024 3024 3024 3025 3025 3025 3026 3026 3026 3027 3027 3027 3028 3028 3028 3029 3029 3029 3030 3030 3030 3030 3030 3031 3031 3031 3031 3031 3031 3031 3032 3032 3032 3032 3032 3032 3032 3032
3003 3003 3003 3003 3004 3004 3005 3005 3006 3006 3006 3006 3007 3007 3007 3008 3008 3009 3010 3010 3011 3011 3011 3012 3013 3013 3014 3014 3014 3015 3015 3015 3016 3016 3016 3016 3017 3017 3017 3018 3018 3019 3019 3020 3020 3021 3021 3021 3021 3022 3022 3022 3023 3023 3024 3024 3025 3025 3025 3026 3026 3026 3026 3026 3027 3027 3027 3027 3027 3028 3028 3028 3028 3029 3029 3029 3029 3029 3029 3029 3029 3029 3029 3030 3030 3030
3001 3001 3001 3001 3002 3002 3003 3003 3003 3004 3004 3004 3005 3005 3006 3006 3007 3007 3008 3008 3009 3009 3010 3011 3011 3011 3012 3012 3012 3012 3013 3013 3014 3014 3014 3014 3015 3015 3016 3016 3016 3017 3017 3018 3018 3019 3019 3019 3020 3020 3020 3020 3021 3021 3021 3022 3022 3023 3023 3023 3023 3024 3024 3024 3025 3025 3025 3025 3025 3025 3026 3026 3026 3026 3026 3026 3026 3026 3027 3027 3027 3027 3027 3027 3027 3027
2999 2999 2999 3000 3000 3000 3001 3001 3001 3002 3002 3002 3003 3003 3004 3004 3005 3006 3006 3006 3007 3007 3008 3009 3009 3010 3010 3010 3010 3011 3011 3011 3011 3012 3012 3012 3013 3013 3013 3014 3014 3015 3015 3016 3016 3016 3017 3017 3017 3017 3018 3018 3018 3019 3019 3020 3020 3020 3021 3021 3021 3021 3021 3022 3022 3022 3022 3023 3023 3023 3023 3023 3023 3024 3024 3024 3024 3024 3024 3024 3024 3024 3024 3024 3024 3024
2997 2997 2997 2998 2998 2998 2999 2999 3000 3000 3000 3001 3001 3001 3002 3002 3003 3004 3004 3005 3005 3006 3006 3007 3007 3007 3008 3008 3008 3008 3009 3009 3010 3010 3010 3011 3011 3011 3011 3012 3012 3013 3013 3014 3014 3014 3015 3015 3015 3015 3016 3016 3016 3017 3017 3017 3017 3018 3018 3018 3019 3019 3019 3020 3020 3020 3020 3020 3020 3021 3021 3021 3021 3021 3021 3021 3021 3021 3021 3021 3021 3021 3021 3021 3021 3021
2995 2995 2995 2996 2996 2996 2997 2997 2997 2998 2998 2999 2999 2999 3000 3001 3001 3002 3002 3003 3003 3004 3004 3005 3005 3006 3006 3006 3006 3006 3007 3007 3008 3008 3008 3009 3009 3009 3010 3010 3010 3011 3011 3011 3012 3012 3012 3013 3013 3013 3013 3014 3014 3015 3015 3015 3015 3015 3015 3016 3016 3017 3017 3017 3017 3017 3017 3018 3018 3018 3018 3018 3018 3018 3019 3019 3019 3018 3018 3018 3018 3018 3018 3018 3018 3018
2993 2993 2993 2994 2994 2994 2995 2995 2996 2996 2996 2996 2997 2997 2998 2998 2999 3000 3001 3001 3001 3002 3002 3003 3003 3004 3004 3004 3004 3004 3005 3005 3006 3006 3006 3006 3007 3007 3007 3008 3008 3009 3009 3009 3010 3010 3010 3011 3011 3011 3011 3011 3012 3012 3012 3012 3012 3012 3012 3013 3013 3014 3014 3015 3015 3015 3015 3015 3015 3015 3015 3016 3016 3016 3016 3016 3016 3016 3016 3016 3016 3016 3016 3016 3016 3016
2991 2991 2991 2991 2992 2992 2993 2993 2994 2994 2994 2995 2995 2995 2996 2996 2997 2998 2998 2999 3000 3000 3000 3001 3001 3002 3002 3002 3002 3002 3002 3003 3003 3004 3004 3005 3005 3005 3005 3006 3006 3006 3007 3007 3007 3008 3008 3008 3008 3009 3009 3009 3010 3010 3010 3010 3010 3010 3010 3010 3011 3011 3011 3012 3012 3012 3012 3012 3012 3012 3013 3013 3013 3013 3013 3013 3013 3013 3013 3013 3012 3012 3012 3012 3012 3013
2989 2989 2989 2990 2990 2991 2991 2991 2991 2992 2992 2993 2993 2993 2994 2995 2995 2996 2996 2997 2997 2998 2998 2999 2999 3000 3000 3000 3000 3000 3000 3001 3001 3001 3002 3002 3002 3003 3003 3003 3004 3004 3004 3005 3005 3005 3006 3006 3006 3006 3006 3007 3007 3007 3007 3007 3007 3007 3007 3007 3008 3008 3009 3009 3009 3009 3009 3009 3009 3009 3010 3010 3011 3011 3011 3011 3011 3010 3010 3010 3010 3009 3009 3009 3010 3010
2987 2987 2987 2988 2988 2988 2989 2989 2989 2990 2990 2991 2991 2991 2992 2992 2993 2994 2994 2995 2995 2996 2996 2996 2997 2997 2997 2998 2998 2998 2998 2998 2999 2999 2999 3000 3000 3001 3001 3001 3001 3002 3002 3002 3002 3003 3003 3003 3004 3004 3004 3005 3005 3005 3005 3004 3004 3004 3004 3005 3005 3006 3006 3006 3006 3006 3006 3006 3006 3006 3007 3007 3007 3008 3007 3008 3008 3008 3007 3007 3006 3006 3006 3006 3006 3006
2985 2985 2986 2986 2986 2986 2987 2987 2987 2988 2988 2989 2989 2989 2990 2990 2991 2991 2992 2993 2993 2993 2994 2994 2994 2995 2995 2995 2996 2996 2996 2996 2996 2996 2997 2997 2997 2998 2998 2999 2999 2999 3000 3000 3000 3000 3001 3001 3001 3001 3002 3002 3002 3002 3002 3002 3002 3001 3002 3002 3002 3002 3003 3003 3002 3002 3003 3003 3003 3003 3004 3004 3004 3004 3005 3005 3005 3005 3005 3004 3004 3003 3003 3003 3003 3003
2983 2983 2984 2984 2984 2984 2985 2985 2985 2986 2986 2986 2987 2987 2987 2988 2989 2989 2990 2990 2991 2991 2991 2991 2992 2992 2993 2993 2993 2993 2993 2994 2994 2994 2994 2994 2995 2995 2996 2996 2996 2996 2997 2997 2997 2997 2998 2998 2999 2999 2999 2999 2999 3000 3000 3000 2999 2999 2999 2999 2999 3000 3000 3000 3000 3000 3000 3000 3000 3001 3001 3001 3001 3001 3001 3001 3001 3001 3002 3001 3001 3000 2999 2999 3000 3000